Luxor, Egypt

9:50 PM EET on November 23, 2017 (GMT +0200)
Luxor

Weather History for HELX - April, 2013

Change the Weather History Date:

Saturday, April 6, 2013

  Actual Average Record
Temperature  
Mean Temperature 74 °F -  
Max Temperature 91 °F 93 °F 105 °F (2007)
Min Temperature 56 °F 64 °F 53 °F (1997)
Cooling Degree Days 8    
Growing Degree Days 24 (Base 50)    
Moisture  
Dew Point 44 °F    
Average Humidity 32    
Maximum Humidity 48    
Minimum Humidity 13    
Precipitation  
Precipitation 0.00 in 0.00 in - ()
Sea Level Pressure  
Sea Level Pressure 29.91 in    
Wind  
Wind Speed 1 mph ()    
Max Wind Speed 5 mph    
Max Gust Speed -    
Visibility 5.6 miles    
Events      
Averages and records for this station are not official NWS values.
T = Trace of Precipitation, MM = Missing Value Source: Averaged Metar Reports

Daily Weather History Graph

Daily Weather History Graph

Search for Another Location

Airport or City:

Trip Planner

Search our weather history database for the weather conditions in past years. The results will help you decide how hot, cold, wet, or windy it might be!

Date:

Astronomy

Apr. 06, 2013 Rise Set
Actual Time 5:35 AM EET 6:08 PM EET
Civil Twilight 5:12 AM EET 6:31 PM EET
Nautical Twilight 4:45 AM EET 6:58 PM EET
Astronomical Twilight 4:17 AM EET 7:26 PM EET
Moon 2:43 AM EET (4/6) 2:35 PM EET (4/6)
Length of Visible Light 13h 19m
Length of Day
12h 32m
Waning Crescent, 17% of the Moon is Illuminated
Apr 6
Waning Crescent
Apr 10
New
Apr 18
First Quarter
Apr 25
Full
May 2
Last Quarter

Hourly Weather History & Observations

Time (EET) Temp. Dew Point Humidity Pressure Visibility Wind Dir Wind Speed Gust Speed Precip Events Conditions
12:00 AM 68.0 °F 42.8 °F 40% 29.98 in - South 1.2 mph - N/A   Clear
1:00 AM 64.4 °F 42.8 °F 45% 29.95 in - South 1.2 mph - N/A   Clear
2:00 AM 64 °F 42 °F 33% 29.95 in 6 mi SSE 2.3 mph - -  
2:00 AM 64.4 °F 41.0 °F 42% 29.95 in - SSE 2.3 mph - N/A   Clear
3:00 AM 62.6 °F 42.8 °F 48% 29.95 in - Calm Calm - N/A   Clear
4:00 AM 62.6 °F 41.0 °F 45% 29.95 in - East 2.3 mph - N/A   Clear
5:00 AM 59.0 °F 39.2 °F 48% 29.95 in - Calm Calm - N/A   Clear
6:00 AM 59.0 °F 39.2 °F 48% 29.95 in - Calm Calm - N/A   Clear
7:00 AM 64.4 °F 41.0 °F 42% 29.98 in - East 3.5 mph - N/A   Clear
8:00 AM 69 °F 48 °F 36% 30.00 in 5 mi North 2.3 mph - -   Haze
8:00 AM 69.8 °F 48.2 °F 46% 30.01 in 5.0 mi North 2.3 mph - N/A   Unknown
9:00 AM 73.4 °F 46.4 °F 38% 29.98 in - NNE 4.6 mph - N/A   Clear
10:00 AM 78.8 °F 46.4 °F 32% 29.98 in - Calm Calm - N/A   Clear
11:00 AM 82.4 °F 42.8 °F 25% 29.95 in - Calm Calm - N/A   Clear
12:00 PM 84.2 °F 44.6 °F 25% 29.92 in - Calm Calm - N/A   Clear
1:00 PM 86.0 °F 44.6 °F 23% 29.89 in - SSW 2.3 mph - N/A   Clear
2:00 PM 90 °F 46 °F 13% 29.86 in 6 mi WNW 3.5 mph - -  
2:00 PM 89.6 °F 46.4 °F 22% 29.86 in - WNW 3.5 mph - N/A   Clear
3:00 PM 89.6 °F 46.4 °F 22% 29.83 in - NW 4.6 mph - N/A   Clear
4:00 PM 89.6 °F 46.4 °F 22% 29.83 in - NW 4.6 mph - N/A   Clear
5:00 PM 89.6 °F 48.2 °F 24% 29.83 in - NNW 3.5 mph - N/A   Clear
6:00 PM 87.8 °F 46.4 °F 24% 29.83 in - Calm Calm - N/A   Clear
7:00 PM 80.6 °F 46.4 °F 30% 29.83 in - WSW 2.3 mph - N/A   Clear
8:00 PM 79 °F 43 °F 18% 29.86 in 6 mi Calm Calm - -  
8:00 PM 78.8 °F 42.8 °F 28% 29.86 in - Calm Calm - N/A   Clear
9:00 PM 80.6 °F 42.8 °F 26% 29.86 in - Calm Calm - N/A   Clear
10:00 PM 75.2 °F 37.4 °F 25% 29.89 in - Calm Calm - N/A   Clear
11:00 PM 73.4 °F 41.0 °F 31% 29.89 in - Calm Calm - N/A   Clear